Content
SEND FEEDBACK

Daily
Averages
Monthly
Summary
United States of America

BERKELEY, MISSOURI


Home > North America > United States > Missouri
Elevation: 564 feet     Latitude: 38 45N     Longitude: 090 22W

WEATHER
 
SELECT A DAY
Number of Records: 203,490;   Date Range: 1/1/95 - 8/12/14
 
SHARE

PRINT THIS DATA

[ ← Previous Day ]
WEATHER ALMANAC - MAY 22, 2013
[ Next Day → ]
[ °C ]   °F
Weather ElementAverageHighLow
Temperature69 °F75.9 °F (1:51 pm)64.4 °F (5:24 am)
Dewpoint56.6 °F62.1 °F (1:51 am)52 °F (11:51 am)
Humidity66.2 %88 % (5:24 am)46 % (12:51 pm)
Barometer29.74 in29.86 in (10:51 pm)29.65 in (4:51 am)
Wind Speed12.2 mph23 mph (12:51 pm)
Wind Gust26.5 mph (12:51 pm)
Weather ElementAverage
Visibility10 mi
Wind DirectionWSW (243.7 °)

Weather ElementTotal
Precipitation---
Cooling Degree Days5.2 (Base 65)
Growing Degree Days20.2 (Base 50)
Averaged from 27 records on May 22, 2013
WEATHER CONDITIONS BREAKOUT
WIND DIRECTION BREAKOUT
WEATHER BY HOUR - MAY 22, 2013
[ °C ]   °F
Local TimeTemperatureDewpointHumidityBarometerVisibilityWind DirectionWind SpeedGust SpeedPrecipitationEventsConditions
1:51 AM66.0 °F62.1 °F87 %29.70 in10.0 miSouth (190°)6.9 mphMostly Cloudy
2:51 AM66.0 °F61.0 °F84 %29.69 in10.0 miSSW (210°)9.2 mph0.00 inRainLight Rain
3:51 AM66.0 °F60.1 °F81 %29.68 in10.0 miSSW (210°)8.1 mph0.00 inMostly Cloudy
4:51 AM64.9 °F59.0 °F81 %29.65 in10.0 miSSW (200°)3.5 mphScattered Clouds
5:24 AM64.4 °F60.8 °F88 %29.70 in10.0 miSSW (210°)10.4 mphMostly Cloudy
5:51 AM64.9 °F59.0 °F81 %29.68 in10.0 miSW (220°)12.7 mphOvercast
6:29 AM64.4 °F59.0 °F83 %29.72 in10.0 miSW (230°)10.4 mphMostly Cloudy
6:51 AM64.9 °F60.1 °F84 %29.70 in10.0 miSW (230°)8.1 mphMostly Cloudy
7:40 AM66.2 °F60.8 °F83 %29.73 in10.0 miWSW (250°)10.4 mphMostly Cloudy
7:46 AM66.2 °F60.8 °F83 %29.73 in10.0 miWSW (240°)12.7 mphMostly Cloudy
7:51 AM66.0 °F60.1 °F81 %29.71 in10.0 miWSW (250°)10.4 mphMostly Cloudy
8:51 AM70.0 °F59.0 °F68 %29.72 in10.0 miWSW (250°)8.1 mphScattered Clouds
9:51 AM72.0 °F55.9 °F57 %29.73 in10.0 miWest (280°)10.4 mphScattered Clouds
10:51 AM73.9 °F54.0 °F50 %29.75 in10.0 miWSW (240°)15.0 mphScattered Clouds
11:51 AM73.0 °F52.0 °F48 %29.74 in10.0 miWSW (240°)13.8 mph23.0 mphMostly Cloudy
12:51 PM75.0 °F53.1 °F46 %29.74 in10.0 miWSW (250°)23.0 mph26.5 mphMostly Cloudy
1:51 PM75.9 °F55.9 °F50 %29.75 in10.0 miWSW (240°)13.8 mph24.2 mphMostly Cloudy
2:51 PM75.9 °F55.0 °F48 %29.75 in10.0 miWSW (240°)16.1 mph24.2 mphMostly Cloudy
3:51 PM75.0 °F55.0 °F50 %29.75 in10.0 miWSW (240°)16.1 mph21.9 mphScattered Clouds
4:51 PM73.9 °F54.0 °F50 %29.76 in10.0 miWSW (250°)16.1 mphMostly Cloudy
5:51 PM73.0 °F54.0 °F51 %29.77 in10.0 miWest (270°)19.6 mphMostly Cloudy
6:51 PM71.1 °F53.1 °F53 %29.78 in10.0 miWest (270°)13.8 mphMostly Cloudy
7:51 PM70.0 °F53.1 °F55 %29.80 in10.0 miWest (280°)13.8 mph19.6 mphMostly Cloudy
8:51 PM66.9 °F53.1 °F61 %29.82 in10.0 miWNW (290°)11.5 mph20.7 mphMostly Cloudy
9:51 PM66.9 °F52.0 °F59 %29.84 in10.0 miWest (270°)12.7 mphMostly Cloudy
10:51 PM66.0 °F53.1 °F63 %29.86 in10.0 miWest (270°)9.2 mphMostly Cloudy
11:51 PM64.9 °F52.0 °F63 %29.86 in10.0 miWest (260°)13.8 mphMostly Cloudy
Hourly data recorded from KSTL, located miles away from Berkeley, Missouri







STORIES FROM OUR PARTNERS